[Iaude] MPEC C85: 2018 CV2 [a=0.90,e=0.31,i=30.1,H=25.5]

mpec at mpcdb1.cfa.harvard.edu mpec at mpcdb1.cfa.harvard.edu
Mon Feb 12 10:19:27 EST 2018


M.P.E.C. 2018-C85                                Issued 2018 Feb. 12, 15:14 UT
 
     The Minor Planet Electronic Circulars contain information on unusual
         minor planets and routine data on comets.  They are published
    on behalf of Division F of the International Astronomical Union by the
          Minor Planet Center, Smithsonian Astrophysical Observatory,
                          Cambridge, MA 02138, U.S.A.

             Prepared using the Tamkin Foundation Computer Network

                              MPC at CFA.HARVARD.EDU
            URL https://www.minorplanetcenter.net/    ISSN 1523-6714


                                   2018 CV2
 
Observations:
     K18C02V* C2018 02 09.26789 09 20 10.67 +36 31 50.1          20.9 GUEC085G96
     K18C02V  C2018 02 09.27824 09 20 04.17 +36 35 43.3          20.1 GUEC085G96
     K18C02V  C2018 02 09.28342 09 20 00.94 +36 37 38.6          20.6 GUEC085G96
     K18C02V  C2018 02 09.44694 09 18 20.33 +37 36 43.4          20.4 GUEC085I52
     K18C02V  C2018 02 09.44838 09 18 19.48 +37 37 13.7          20.5 GUEC085I52
     K18C02V  C2018 02 09.44983 09 18 18.59 +37 37 44.1          19.9 GUEC085I52
     K18C02V  C2018 02 09.45128 09 18 17.76 +37 38 14.4          20.3 GUEC085I52
     K18C02V  C2018 02 09.51174 09 17 42.72 +37 59 12.7                UEC085I52
     K18C02V  C2018 02 09.51233 09 17 42.29 +37 59 25.9          20.9 GUEC085I52
     K18C02V  C2018 02 09.51291 09 17 41.96 +37 59 37.8          20.2 GUEC085I52
     K18C02V  C2018 02 09.51351 09 17 41.69 +37 59 49.9          20.4 GUEC085I52
     K18C02V KC2018 02 09.94362309 13 59.17 +40 23 36.6          21.1 VSEC085L01
     K18C02V KC2018 02 09.94607609 13 57.78 +40 24 23.2          20.1 VSEC085L01
     K18C02V KC2018 02 09.94853409 13 56.40 +40 25 09.5          19.8 VSEC085L01
     K18C02V  C2018 02 10.16990 09 12 06.04 +41 33 23.3          20.9 GUEC085I52
     K18C02V  C2018 02 10.17184 09 12 04.97 +41 33 58.4          20.4 GUEC085I52
     K18C02V  C2018 02 10.17376 09 12 03.84 +41 34 33.5          20.9 GUEC085I52
     K18C02V  C2018 02 10.17568 09 12 02.72 +41 35 09.3          20.9 GUEC085I52
     K18C02V  C2018 02 11.22988 09 03 08.41 +46 14 22.1          21.1 GUEC085I52
     K18C02V  C2018 02 11.23458 09 03 05.82 +46 15 28.3          20.8 GUEC085I52
     K18C02V  C2018 02 11.24884 09 02 57.93 +46 18 49.7          21.3 GUEC085I52
 
Observer details:
G96 Mt. Lemmon Survey.  Observer A. D. Grauer.  Measurers E. J. Christensen,
    D. C. Fuls, A. R. Gibbs, A. D. Grauer, J. A. Johnson, R. A. Kowalski,
    S. M. Larson, G. J. Leonard, R. G. Matheny, R. L. Seaman, F. C. Shelly.
    1.5-m reflector + 10K CCD.
I52 Steward Observatory, Mt. Lemmon Station.  Observers G. J. Leonard,
    J. A. Johnson.  Measurers E. J. Christensen, D. C. Fuls, A. R. Gibbs,
    A. D. Grauer, J. A. Johnson, R. A. Kowalski, S. M. Larson, G. J. Leonard,
    R. G. Matheny, R. L. Seaman, F. C. Shelly.  1.0-m reflector + CCD.
L01 Visnjan Observatory, Tican.  Observer K. Korlevic.  1.0-m f/2.9 reflector
    + CCD.
 
Orbital elements:
2018 CV2                                                 Earth MOID = 0.0382 AU
Epoch 2018 Mar. 23.0 TT = JDT 2458200.5                 MPC
M 154.88294              (2000.0)            P               Q
n   1.16377966     Peri.  226.21039     +0.93198386     -0.13240890
a   0.8951357      Node   137.77645     +0.14166179     +0.98991108
e   0.3135853      Incl.   30.14183     -0.33367352     +0.05043738
P   0.85           H   25.5           G   0.15           U   7
Residuals in seconds of arc
180209 G96  0.3+  0.1-    180209 I52  1.0+  0.7-    180210 I52  0.1-  0.5+
180209 G96  0.2-  0.9+    180209 I52  0.1-  0.4+    180210 I52  0.2+  0.0
180209 G96  0.2-  0.3+    180209 I52  0.1-  0.3+    180210 I52  0.2-  0.0
180209 I52  0.5-  0.4-    180209 I52  0.7+  0.0     180210 I52  0.5-  0.7+
180209 I52  0.4-  0.4-    180209 L01  0.5+  0.1-    180211 I52  0.1+  0.0
180209 I52  0.8-  0.5-    180209 L01  1.1+  0.1-    180211 I52  0.4-  0.3-
180209 I52  0.4-  0.6-    180209 L01 (1.8+  0.5-)   180211 I52 (2.3-  0.0 )

Ephemeris:
2018 CV2                 a,e,i = 0.90, 0.31, 30                  q = 0.6144
Date    TT    R. A. (2000) Decl.     Delta      r     Elong.  Phase     V
2018 01 13    15 12 51.0 -76 15 28   0.2180  0.9074    63.5   104.1    25.8
...
2018 01 28    12 00 05.7 -64 43 50   0.08642 0.9866    88.7    86.3    23.2
...
2018 02 05    10 06 14.2 -05 46 53   0.04193 1.0239   154.5    24.5    19.8
...
2018 02 11    09 04 57.2 +45 18 45   0.07271 1.0494   148.1    29.8    21.2
2018 02 12    08 57 03.9 +48 58 29   0.08089 1.0534   143.7    33.7    21.6
2018 02 13    08 49 47.5 +51 54 18   0.08939 1.0574   140.0    36.8    21.9
...
2018 02 19    08 17 23.1 +61 13 53   0.1439  1.0799   126.3    47.6    23.3
...
2018 02 27    07 56 22.3 +65 18 56   0.2197  1.1063   116.6    53.1    24.4
...
2018 03 14    07 53 42.9 +66 50 49   0.3602  1.1445   105.5    56.8    25.6

A. U. Tomatic                (C) Copyright 2018 MPC           M.P.E.C. 2018-C85



More information about the Iaude mailing list